[[{"header":{"parameterUnit":"m.s-1","parameterCategory":1,"la1":30.2992,"la2":30.254,"lo1":-89.0895,"lo2":-89.0443,"dy":0.0025,"dx":0.0025,"nx":19,"ny":19,"refTime":"2026-03-07T09:00:00:Z","depth":0,"parameterNumber":2,"parameterNumberName":"U-component_of_WINDS"},"data":[0,0,0,-3.0333,-3.0335,-3.0425,-3.0425,-3.0543,-3.0544,0,0,0,0,0,0,0,0,0,0,0,-3.0306,-3.0307,-3.0333,-3.0335,-3.0425,-3.0425,-3.0543,-3.0544,0,0,0,0,0,0,0,0,0,0,0,-3.0306,-3.0307,-3.0308,-3.0336,-3.0425,-3.0425,-3.0543,-3.0474,0,0,0,0,0,0,0,0,0,0,-3.0387,-3.0361,-3.0307,-3.0308,-3.0336,-3.0425,-3.0425,-3.0471,-3.0479,-3.0503,0,-3.0523,0,-3.0535,-3.0552,-3.0553,0,0,0,-3.0336,-3.0355,-3.0379,-3.0308,-3.0337,-3.0425,-3.0385,-3.0475,-3.0484,-3.0513,-3.0524,-3.0529,-3.0537,-3.0553,-3.0553,-3.0686,-3.0687,0,0,-3.0331,-3.0322,-3.0373,-3.0385,-3.0368,-3.0382,-3.0388,-3.0481,-3.0493,-3.0525,-3.0531,-3.0539,-3.0554,-3.0555,-3.0686,-3.0686,0,0,0,-3.0316,-3.0319,-3.0341,-3.038,-3.0396,-3.0384,-3.0391,-3.0489,-3.0497,-3.0533,-3.054,-3.0554,-3.0556,-3.0685,-3.0686,-3.0704,0,0,0,-3.0313,-3.031,-3.0339,-3.0335,-3.0394,-3.0443,-3.0397,-3.049,-3.0501,-3.054,-3.0554,-3.0557,-3.0685,-3.0686,-3.0702,-3.0714,0,0,0,-3.0301,-3.0309,-3.0321,-3.0334,-3.0372,-3.0441,-3.0455,-3.0493,-3.0506,-3.0553,-3.0557,-3.0684,-3.0685,-3.0701,-3.0711,-3.0745,0,0,0,-3.0285,-3.0337,-3.0322,-3.0384,-3.0371,-3.0452,-3.0454,-3.0516,-3.0558,-3.0555,-3.0685,-3.0686,-3.07,-3.0709,-3.0743,-3.0771,-3.0782,0,0,-3.0346,-3.0345,-3.0382,-3.0371,-3.0451,-3.0439,-3.0524,-3.0572,-3.0586,-3.0653,-3.0656,-3.0703,-3.0711,-3.0745,-3.0849,-3.0858,0,0,0,-3.0399,-3.0425,-3.0449,-3.0488,-3.0525,-3.0559,-3.0595,-3.0613,-3.067,-3.0618,-3.0726,-3.0731,-3.0751,-3.0765,-3.0772,-3.0789,-3.0692,-3.0692,-3.0692,-3.0472,-3.0486,-3.0549,-3.0574,-3.0613,-3.065,-3.0683,-3.0714,-3.0718,-3.0744,-3.0762,-3.0824,-3.0839,-3.0845,-3.0863,-3.078,-3.078,-3.078,-3.078,-3.0562,-3.0602,-3.0606,-3.0668,-3.0683,-3.0737,-3.0776,-3.0778,-3.0831,-3.0811,-3.0829,-3.0804,-3.0854,-3.087,-3.0782,-3.0781,-3.0781,-3.0781,-3.0781,-3.061,-3.0631,-3.0652,-3.0711,-3.0755,-3.0781,-3.0831,-3.0844,-3.0858,-3.0876,-3.0897,-3.0897,-3.0897,-3.0886,-3.0886,-3.0886,-3.0886,-3.0887,-3.0887,-3.065,-3.0673,-3.0713,-3.0758,-3.0785,-3.0823,-3.0863,-3.0891,-3.0926,-3.0932,-3.0932,-3.0933,-3.0856,-3.0835,-3.089,-3.0889,-3.0889,-3.0889,-3.0888,-3.0733,-3.0716,-3.0777,-3.0805,-3.0859,-3.0903,-3.092,-3.0977,-3.1002,-3.1027,-3.1026,-3.0967,-3.0966,-3.0961,-3.0943,-3.1023,-3.1023,-3.1023,-3.1023,-3.0771,-3.0773,-3.0838,-3.0881,-3.0925,-3.0947,-3.1018,-3.1051,-3.1082,-3.11,-3.1091,-3.107,-3.1064,-3.1067,-3.1059,-3.1043,-3.1146,-3.1146,-3.1146,-3.0822,-3.0829,-3.0884,-3.0913,-3.0958,-3.0996,-3.1063,-3.1115,-3.1148,-3.1151,-3.1113,-3.1108,-3.1075,-3.1063,-3.1063,-3.105,-3.1021,0,0]},{"header":{"parameterUnit":"m.s-1","parameterCategory":1,"la1":30.2992,"la2":30.254,"lo1":-89.0895,"lo2":-89.0443,"dy":0.0025,"dx":0.0025,"nx":19,"ny":19,"refTime":"2026-03-07T09:00:00:Z","depth":0,"parameterNumber":3,"parameterNumberName":"V-component_of_WINDS"},"data":[0,0,0,2.7601,2.7601,2.7635,2.7635,2.7667,2.7667,0,0,0,0,0,0,0,0,0,0,0,2.7583,2.7583,2.7601,2.7602,2.7635,2.7635,2.7666,2.7667,0,0,0,0,0,0,0,0,0,0,0,2.7583,2.7583,2.7583,2.7602,2.7635,2.7635,2.7666,2.7645,0,0,0,0,0,0,0,0,0,0,2.7615,2.7591,2.7583,2.7583,2.7602,2.7635,2.7635,2.7645,2.7647,2.7646,0,2.7643,0,2.7655,2.7668,2.7668,0,0,0,2.7607,2.7589,2.7605,2.7583,2.7602,2.7635,2.7622,2.7646,2.7648,2.7649,2.7644,2.7645,2.7656,2.7668,2.7668,2.7648,2.7647,0,0,2.7605,2.7585,2.7603,2.7606,2.76,2.762,2.7623,2.7647,2.7641,2.7644,2.7646,2.7657,2.7668,2.7668,2.7648,2.7648,0,0,0,2.7596,2.7584,2.7599,2.7605,2.7612,2.7621,2.7624,2.764,2.7647,2.7647,2.7657,2.7668,2.7669,2.7649,2.7648,2.7612,0,0,0,2.7595,2.7578,2.7598,2.7586,2.7611,2.7626,2.7615,2.7645,2.7648,2.7657,2.7668,2.7669,2.7649,2.7648,2.7614,2.7599,0,0,0,2.7584,2.7577,2.7579,2.7585,2.7599,2.7626,2.7635,2.7646,2.7654,2.7668,2.7669,2.7649,2.7648,2.7616,2.7601,2.7589,0,0,0,2.7565,2.7545,2.7578,2.756,2.7599,2.7603,2.7635,2.7639,2.7646,2.7668,2.7649,2.7648,2.7616,2.7603,2.7591,2.7576,2.7567,0,0,2.7529,2.754,2.7531,2.7562,2.7556,2.76,2.7589,2.7614,2.7633,2.7642,2.7642,2.7614,2.7602,2.7589,2.7525,2.7518,0,0,0,2.7513,2.7507,2.7509,2.7516,2.7536,2.7552,2.7582,2.7592,2.76,2.7634,2.7606,2.7599,2.7593,2.7587,2.7581,2.7578,2.7644,2.7644,2.7644,2.7433,2.746,2.7448,2.7479,2.7485,2.7517,2.7525,2.7544,2.7568,2.7561,2.7564,2.7522,2.7514,2.751,2.7506,2.7557,2.7557,2.7557,2.7557,2.7383,2.7379,2.7414,2.7414,2.7443,2.7444,2.7474,2.7492,2.7498,2.7521,2.7517,2.7542,2.7501,2.75,2.7555,2.7555,2.7555,2.7556,2.7556,2.7335,2.7338,2.7351,2.7365,2.7374,2.7406,2.7411,2.7436,2.7461,2.7456,2.7464,2.7464,2.747,2.7458,2.7458,2.7458,2.7457,2.7457,2.7457,2.728,2.7296,2.7297,2.7317,2.7327,2.7342,2.7375,2.7385,2.7403,2.7421,2.7421,2.7447,2.7492,2.7504,2.7455,2.7455,2.7456,2.7456,2.7456,2.7222,2.7239,2.724,2.725,2.7278,2.7286,2.7319,2.7337,2.7349,2.7351,2.7378,2.7407,2.742,2.7425,2.7435,2.7371,2.7371,2.7371,2.7371,2.7182,2.7191,2.72,2.7213,2.723,2.726,2.7263,2.7289,2.7319,2.7328,2.7341,2.7356,2.7359,2.7371,2.7377,2.7386,2.7312,2.7312,2.7312,2.7148,2.7161,2.7158,2.7188,2.7212,2.7233,2.7236,2.7251,2.7289,2.731,2.7337,2.7339,2.7363,2.737,2.7392,2.7401,2.7419,0,0]}]]